SL-3 R/B

Satellite information

Favourite Embed

Satellite Type and Status

ROCKET BODYIN ORBIT

Key statistics

Satellite SL-3 R/B at a glance.

Uptime

17873

Days in orbit

Revolutions

≈ 14.0

Per day

Orbit

LEO

Low Earth Orbit

Inclination

81.3

Latest

Satellite identification and parameters

Extended collection of information and parameters for SL-3 R/B.

Object identification

Identified? True

Debris? False

Object name: SL-3 R/B

International designator: 1977-002B

Object number (NORAD): 9662

Object ID (CCSDS): 9662

Country: COMMONWEALTH OF INDEPENDENT STATES (CIS)

Current information (Y/N): Y

RCS size: LARGE

Orbital parameters

Period: 102.763 minutes

Inclination: 81.2753 deg

SMA: 7267.499 km

Apoapsis: 927.911 km

Periapsis: 850.817 km

RAAN: 351.4841 deg

Eccentricy: 0.00530405

Argument of periapsis: 62.4049 deg

Mean anomaly: 298.2489 deg

Mean motion: 14.01281244 rev/day

Mean motion (dot): 0.00000056 rev/day2

B* drag term: 0.000028240322 1/REarth

Two-line elements (TLE)

Creation date: Dec. 12, 2025, 10:14 a.m.

Reference frame: TEME

Reference center: EARTH

Epoch: Dec. 12, 2025, 3:42 a.m. UTC

TLE line 0: 0 SL-3 R/B

TLE line 1: 1 09662U 77002B 25346.15447959 .00000056 00000-0 28240-4 0 9994

TLE line 2: 2 09662 81.2753 351.4841 0053041 62.4049 298.2489 14.01281244500436

Live tracking on map

Real-time ground track for satellite SL-3 R/B.

In-orbit conjunctions

A list of the most updated potential collisions computed for object SL-3 R/B.

Target Orbit TCA Probability of collision Miss distance Type
DMSP 5D-2 F13 DEB SSO 2025-04-02 16:31:14 0.0001028475 272.0 (m) DEBRIS
CZ-6A DEB SSO 2024-12-03 05:01:52 0.0001614896 382.0 (m) DEBRIS
COSMOS 1275 DEB LEO 2024-10-19 02:39:30 0.0001301144 315.0 (m) DEBRIS

Associated space launch

Second generation soviet meteorological satellite

SL-3 R/B was lifted into orbit during the mission ‘Vostok 8A92M | Meteor-2 2’, on board a Vostok 8A92M space rocket.

The launch took place on Jan. 6, 1977, 11:17 p.m. from 43/3 (43L).

For more information about the launch, click the button.

Launch to space Vostok 8A92M | Meteor-2 2
Vostok 8A92M | Meteor-2 2

Agency: N/A

Status: Launch Successful

Launch date: Jan. 6, 1977, 11:17 p.m. UTC

Rocket: Vostok 8A92M

Launch pad: 43/3 (43L)

Location: Plesetsk Cosmodrome, Russian Federation

...

Latest news about this satellite

There are no fresh news available about this satellite. Check back as we update our databases every day.


Newsletter sign-up

Weekly statistics, charts and insights to help you stay on top of the space industry.